Location: Mahannah Oil Field
(37.4664°N, 96.6003°W)
Time: 19:09:41
(UTC+00:00)

Vanguard 2 Rocket - Pass Details

Date: 21 January 2021
Orbit: 554 x 3326 km, 32.9° (Epoch: 26 February)

Event Time Altitude Azimuth Distance (km) Brightness Sun altitude
Rises 01:58:09 0° 270° (W) 4,322 11.6 -27.6°
Reaches altitude 10° 02:01:47 10° 265° (W) 2,933 10.5 -28.3°
Enters shadow 02:07:46 47° 204° (SSW) 1,020 7.2 -29.5°
Maximum altitude 02:08:02 47° 194° (SSW) 998 - -29.6°
Drops below altitude 10° 02:12:14 10° 119° (ESE) 1,972 - -30.4°
Sets 02:14:15 0° 113° (ESE) 2,775 - -30.8°
